Location: Vale
(35.4830°N, 81.3830°W)
Time: 09:40:31
(UTC-05:00)

SR - All Passes

Search period start: 23 January 2017 00:00
Search period end: 02 February 2017 00:00
Orbit: 576 x 881 km, 66.7° (Epoch: 22 January)

Date Brightness Start Highest point End Pass type
(mag) Time Alt. Az. Time Alt. Az. Time Alt. Az.
23 Jan - 03:50:29 10° SSW 03:54:57 76° ESE 03:59:52 10° NNE visible
23 Jan - 05:35:39 10° WNW 05:37:45 13° NW 05:39:55 10° NNW visible
23 Jan - 12:33:49 10° N 12:39:01 33° NE 12:44:18 10° ESE daylight
23 Jan - 14:15:51 10° NW 14:21:08 36° WSW 14:26:27 10° S daylight
24 Jan - 03:01:48 10° S 03:05:47 32° ESE 03:10:05 10° NE night (unlit)
24 Jan - 04:44:05 10° WSW 04:47:52 24° NW 04:51:56 10° N visible
24 Jan - 11:45:17 10° N 11:49:14 19° NE 11:53:16 10° E daylight
24 Jan - 13:26:04 10° NNW 13:31:53 72° WSW 13:37:47 10° SSE daylight
25 Jan - 02:14:27 10° SE 02:16:48 14° ESE 02:19:13 10° ENE night (unlit)
25 Jan - 03:53:49 10° SW 03:58:14 50° WNW 04:03:05 10° NNE visible
25 Jan - 12:36:43 10° NNW 12:42:29 60° ENE 12:48:20 10° SE daylight
25 Jan - 14:20:11 10° WNW 14:24:08 19° WSW 14:28:06 10° SSW daylight
26 Jan - 03:04:21 10° SSW 03:08:49 72° ESE 03:13:46 10° NNE night (unlit)
26 Jan - 04:49:15 10° WNW 04:51:35 13° NW 04:54:01 10° NNW visible
26 Jan - 11:47:45 10° N 11:52:54 32° NE 11:58:08 10° ESE daylight
26 Jan - 13:29:41 10° NW 13:35:03 38° WSW 13:40:26 10° S daylight
27 Jan - 02:15:43 10° S 02:19:40 31° ESE 02:23:56 10° NE night (unlit)
27 Jan - 03:57:50 10° WSW 04:01:43 26° NW 04:05:54 10° N night (unlit)
27 Jan - 10:59:16 10° N 11:03:07 18° NE 11:07:01 10° E daylight
27 Jan - 12:39:57 10° NNW 12:45:48 75° WSW 12:51:42 10° SSE daylight
28 Jan - 01:28:32 10° SE 01:30:42 13° ESE 01:32:56 10° ENE night (unlit)
28 Jan - 03:07:37 10° SW 03:12:05 53° WNW 03:17:00 10° NNE night (unlit)
28 Jan - 11:50:38 10° NNW 11:56:23 57° ENE 12:02:11 10° SE daylight
28 Jan - 13:33:58 10° WNW 13:38:04 20° WSW 13:42:10 10° SSW daylight
29 Jan - 02:18:13 10° SSW 02:22:43 68° ESE 02:27:39 10° NNE night (unlit)
29 Jan - 04:02:51 10° WNW 04:05:25 14° NW 04:08:05 10° NNW night (unlit)
29 Jan - 11:01:40 10° N 11:06:47 31° NE 11:11:57 10° ESE daylight
29 Jan - 12:43:33 10° NW 12:48:58 39° WSW 12:54:24 10° S daylight
30 Jan - 01:29:38 10° SSE 01:33:33 29° ESE 01:37:47 10° NE night (unlit)
30 Jan - 03:11:36 10° WSW 03:15:34 27° NW 03:19:51 10° N night (unlit)
30 Jan - 10:13:13 10° N 10:16:58 17° NE 10:20:46 10° E daylight
30 Jan - 11:53:50 10° NNW 11:59:42 78° WSW 12:05:37 10° SSE daylight
31 Jan - 00:42:37 10° SE 00:44:36 13° ESE 00:46:38 10° ENE night (unlit)
31 Jan - 02:21:27 10° SW 02:25:57 56° WNW 02:30:55 10° NNE night (unlit)
31 Jan - 11:04:32 10° NNW 11:10:17 55° ENE 11:16:04 10° SE daylight
31 Jan - 12:47:45 10° WNW 12:51:59 21° WSW 12:56:13 10° SSW daylight
01 Feb - 01:32:05 10° SSW 01:36:35 64° ESE 01:41:32 10° NNE night (unlit)
01 Feb - 03:16:30 10° W 03:19:15 15° NW 03:22:08 10° NNW night (unlit)
01 Feb - 10:15:36 10° N 10:20:40 30° NE 10:25:46 10° ESE daylight
01 Feb - 11:57:24 10° NW 12:02:53 41° WSW 12:08:22 10° S daylight
